This demonstration page uses our WeatherBlox Daily Observations layout. Learn more.

Left ArrowRight Arrow

41.86663, -103.66717

Hourly Observations for March 22, 2021

Temp ( °F °C ) Dew Point ( °F °C ) Humidity (%) Winds ( mph kmh ) Pressure ( in mb ) Visibility ( mi km ) Precip ( " mm )
12:53 am 00:53 Clear 30 -1.1 27 -2.8 88 88 NW 7 11 30.08 1019 10 16.0934 0 0
2:53 am 02:53 Clear 28 -2.2 25 -3.9 88 88 WNW 7 11 30.05 1018 10 16.0934 0 0
3:53 am 03:53 Clear 28 -2.2 24 -4.4 85 85 NW 6 9 30.04 1017 10 16.0934 0 0
4:53 am 04:53 Clear 27 -2.8 24 -4.4 89 89 NNW 7 11 30.03 1017 10 16.0934 0 0
5:53 am 05:53 Clear 27 -2.8 23 -5 85 85 NNW 8 13 30.02 1017 10 16.0934 0 0
6:53 am 06:53 Cloudy 27 -2.8 25 -3.9 92 92 WNW 5 7 30.01 1016 10 16.0934 0 0
7:53 am 07:53 Mostly Cloudy 29 -1.7 26 -3.3 89 89 W 5 7 30.02 1017 10 16.0934 0 0
8:53 am 08:53 Mostly Cloudy 33 0.6 28 -2.2 82 82 NW 6 9 30.01 1016 10 16.0934 0 0
9:53 am 09:53 Cloudy 37 2.8 30 -1.1 76 76 W 5 7 30.01 1016 10 16.0934 0 0
10:53 am 10:53 Mostly Cloudy 43 6.1 34 1.1 71 71 undefined N/A 29.98 1015 10 16.0934 0 0
11:53 am 11:53 Sunny 46 7.8 39 3.9 77 77 VRB 5 7 29.96 1014 10 16.0934 0 0
12:53 pm 12:53 Sunny 48 8.9 41 5 77 77 S 6 9 29.92 1013 10 16.0934 0 0
1:53 pm 13:53 Mostly Sunny 49 9.4 42 5.6 77 77 undefined N/A 29.89 1012 10 16.0934 0 0
2:53 pm 14:53 Sunny 50 10 44 6.7 80 80 S 6 9 29.86 1011 10 16.0934 0 0
3:53 pm 15:53 Mostly Sunny 50 10 43 6.1 77 77 S 7 11 29.85 1011 10 16.0934 0 0
4:53 pm 16:53 Sunny 49 9.4 42 5.6 77 77 undefined N/A 29.83 1010 10 16.0934 0 0
5:53 pm 17:53 Sunny 48 8.9 38 3.3 68 68 SSW 6 9 29.83 1010 10 16.0934 0 0
6:53 pm 18:53 Sunny 44 6.7 33 0.6 65 65 WSW 6 9 29.83 1010 10 16.0934 0 0
7:53 pm 19:53 Clear 42 5.6 30 -1.1 62 62 WNW 5 7 29.86 1011 10 16.0934 0 0
8:53 pm 20:53 Clear 35 1.7 28 -2.2 76 76 NNW 5 7 29.86 1011 10 16.0934 0 0
9:53 pm 21:53 Clear 32 0 27 -2.8 82 82 ESE 8 13 29.85 1011 10 16.0934 0 0
10:53 pm 22:53 Clear 31 -0.6 27 -2.8 85 85 NNE 3 6 29.84 1011 10 16.0934 0 0
11:53 pm 23:53 Clear 27 -2.8 25 -3.9 92 92 WNW 3 6 29.84 1011 10 16.0934 0 0

Powered by AerisWeather